ELECTRON KICK STAGE R/B, 58993

Orbit data source: Space-Track

ELECTRON KICK STAGE R/B, 58993 is space debris in SSO originally from a launch on Sun, 18 Feb 2024 UTC launched from the Rocket Lab Launch Complex (RLLC). Debris objects in space refer to the collection of defunct objects orbiting the Earth. Examples of debris include non-operational satellites, rocket bodies, and fragments generated from explosions, collisions, or faulty payload assembly.

Loading next visibility...
Identifier
58993, 2024-034B
Orbit
SSO
Country
Flag of USUS
Related business
Manufacturer
Rocket Lab
Mission
Spacecraft
Bus & Motor
KICK STAGE, CURIE
Mass
~43 kg wet, ~43 kg dry
Launch date (UTC)
2024-02-18 (2 years ago)
Launch vehicle
Unknown
Launch site
Rocket Lab Launch Complex (RLLC)
Object type
Payload
Rocket body
Debris
Shape & HBR
Trunc Cone, 0.7 m
Radar Cross Section
0.760 m², Medium (>0.1 m² and < 1m²)

Expand to show TLE details & history
Last TLE update: 16 hours ago

TLE from 16 hours ago
0 ELECTRON KICK STAGE R/B
1 58993U 24034B   26166.16062129  .00092879  00000-0  93332-3 0  9993
2 58993  98.1725 227.4509 0007617  51.0992 309.0944 15.65132747129219
Epoch: 2026-06-15T03:51Z
TLE epoch observation values (Epoch: 2026-06-15T03:51:17.679Z)
Latitude
0.00004°
Longitude
-93.82376°
Altitude
372.744 km
Speed
7.688 km/s
True Right ascension
15h 09m 48s
True Declination
0° 00' 00"
Sunlit
Object was in full shadow at epoch
Visualization orbit readout
Latitude
Unknown
Longitude
Unknown
Altitude
Unknown
Speed
Unknown
Apparent Right ascension
Unknown
Apparent Declination
Unknown
Sunlit
N/A
Visualization observer readout
Local Sidereal Time
06:27:40
Azimuth
Unknown
Elevation
Unknown
Doppler factor
Unknown
Orbital elements
Apogee altitude
374.938 km
Perigee altitude
364.658 km
Semi-major axis
6,747.935 km
Eccentricity
0.00076
Inclination
98.1725°
RAAN
227.4509°
Arg. of periapsis
51.0992°
True anomaly
309.02662°
Mean anomaly
309.0944°
Eccentric anomaly
309.06051°
Mean motion
3.9155 °/min
Orbital period
91.94 mins
BSTAR
0.00093332
Loading maneuver chart data...
Computing Atmospheric mass density...
Loading historical data...
Loading historical data...
Loading historical data...
Loading historical data...
Loading historical data...
Loading historical data...
Loading historical data...
Other satellites on launch #34 in the year 2024 (2024-02-18 UTC)

Documentation

Showing up to 5 results
|